This demonstration page uses our WeatherBlox Daily Observations layout. Learn more.

Left ArrowRight Arrow

Hourly Observations for May 1, 2017

Temp ( °F °C ) Dew Point ( °F °C ) Humidity (%) Winds ( mph kmh ) Pressure ( in mb ) Visibility ( mi km ) Precip ( " mm )
12:53 am 00:53 Clear 65 18.3 40 4.4 40 40 N 6 9 30.09 1019 10 16 0.00 0.00
1:53 am 01:53 Clear 66 18.9 37 2.8 34 34 NNW 10 17 30.09 1019 10 16 0.00 0.00
2:53 am 02:53 Clear 65 18.3 36 2.2 34 34 NNW 8 13 30.09 1019 10 16 0.00 0.00
3:53 am 03:53 Clear 65 18.3 36 2.2 34 34 N 10 17 30.11 1020 10 16 0.00 0.00
4:53 am 04:53 Clear 63 17.2 37 2.8 38 38 undefined N/A 30.10 1019 10 16 0.00 0.00
5:53 am 05:53 Clear 62 16.7 37 2.8 40 40 N 10 17 30.10 1019 10 16 0.00 0.00
6:43 am 06:43 Sunny 63 17 37 3 39 39 N 3 6 30.09 1019 10 16 0.00 0.00
6:53 am 06:53 Sunny 58 14.4 41 5 53 53 VRB 5 7 30.11 1020 10 16 0.00 0.00
7:53 am 07:53 Sunny 67 19.4 39 3.9 36 36 NW 8 13 30.12 1020 10 16 0.00 0.00
8:53 am 08:53 Sunny 70 21.1 37 2.8 30 30 NNW 13 20 30.11 1020 10 16 0.00 0.00
9:53 am 09:53 Sunny 74 23.3 36 2.2 25 25 NNW 12 19 30.10 1019 10 16 0.00 0.00
10:53 am 10:53 Sunny 78 25.6 37 2.8 23 23 NNW 10 17 30.09 1019 10 16 0.00 0.00
11:53 am 11:53 Sunny 80 26.7 38 3.3 22 22 VRB 7 11 30.07 1018 10 16 0.00 0.00
12:53 pm 12:53 Sunny 83 28.3 41 5 23 23 NNE 7 11 30.04 1017 10 16 0.00 0.00
1:53 pm 13:53 Sunny 85 29.4 42 5.6 22 22 VRB 5 7 30.01 1016 10 16 0.00 0.00
2:53 pm 14:53 Sunny 87 30.6 45 7.2 23 23 VRB 3 6 29.99 1016 10 16 0.00 0.00
3:53 pm 15:53 Sunny 87 30.6 45 7.2 23 23 VRB 3 6 29.96 1015 10 16 0.00 0.00
4:53 pm 16:53 Sunny 84 29 41 5 22 22 SW 6 9 30.00 1016 10 16 0.00 0.00
5:53 pm 17:53 Sunny 87 30.6 49 9.4 27 27 VRB 3 6 29.92 1013 10 16 0.00 0.00
6:53 pm 18:53 Sunny 87 30.6 52 11.1 30 30 NW 3 6 29.91 1013 10 16 0.00 0.00
7:53 pm 19:53 Sunny 82 27.8 49 9.4 32 32 NW 7 11 29.91 1013 10 16 0.00 0.00
8:53 pm 20:53 Clear 80 26.7 44 6.7 28 28 NW 8 13 29.94 1014 10 16 0.00 0.00
9:53 pm 21:53 Clear 78 25.6 43 6.1 29 29 WNW 8 13 29.96 1015 10 16 0.00 0.00
10:53 pm 22:53 Clear 75 23.9 44 6.7 33 33 NW 6 9 29.97 1015 10 16 0.00 0.00
11:53 pm 23:53 Clear 69 20.6 49 9.4 49 49 N 9 15 29.98 1015 10 16 0.00 0.00

Powered by AerisWeather